THOR ABLESTAR DEB, 658

Orbit data source: Space-Track

THOR ABLESTAR DEB, 658 is space debris in LEO originally from a launch on Thu, 29 Jun 1961 UTC launched from the Air Force Eastern Test Range (AFETR). Debris objects in space refer to the collection of defunct objects orbiting the Earth. Examples of debris include non-operational satellites, rocket bodies, and fragments generated from explosions, collisions, or faulty payload assembly.

Loading next visibility...
Identifier
658, 1961-015HK
Orbit
LEO
Country
Flag of USUS
Related business
Manufacturer
Unknown
Mission
Spacecraft
Bus & Motor
Unknown
Mass
Unknown
Launch date (UTC)
1961-06-29 (65 years ago)
Launch vehicle
Unknown
Launch site
Air Force Eastern Test Range (AFETR)
Object type
Payload
Rocket body
Debris
Shape & HBR
Unknown shape, 0.1 m
Radar Cross Section
Small (<0.1 m²)

Expand to show TLE details & history
Last TLE update: 13 hours ago

TLE from 13 hours ago
0 THOR ABLESTAR DEB
1 00658U 61015HK  26071.77783737 -.00000345  00000-0 -32926-3 0  9996
2 00658  65.8649 358.6848 0361733 260.2811  95.7210 13.41646365 46669
Epoch: 2026-03-12T18:40Z
TLE epoch observation values (Epoch: 2026-03-12T18:40:05.148Z)
Latitude
-0.00004°
Longitude
-91.75952°
Altitude
1,141.722 km
Speed
7.265 km/s
True Right ascension
23h 54m 44s
True Declination
0° 00' 00"
Sunlit
Object was in daylight at epoch
Visualization orbit readout
Latitude
Unknown
Longitude
Unknown
Altitude
Unknown
Speed
Unknown
Apparent Right ascension
Unknown
Apparent Declination
Unknown
Sunlit
N/A
Visualization observer readout
Local Sidereal Time
11:42:11
Azimuth
Unknown
Elevation
Unknown
Doppler factor
Unknown
Orbital elements
Apogee altitude
1,372.257 km
Perigee altitude
831.118 km
Semi-major axis
7,479.824 km
Eccentricity
0.03617
Inclination
65.8649°
RAAN
358.6848°
Arg. of periapsis
260.2811°
True anomaly
99.82349°
Mean anomaly
95.721°
Eccentric anomaly
97.77453°
Mean motion
3.3551 °/min
Orbital period
107.3 mins
BSTAR
-0.00032926
Loading maneuver chart data...
Computing Atmospheric mass density...
Loading historical data...
Loading historical data...
Loading historical data...
Loading historical data...
Loading historical data...
Loading historical data...
Loading historical data...

Documentation

Showing up to 5 results
|